[[{"header":{"parameterUnit":"m.s-1","parameterCategory":1,"la1":30.2991,"la2":30.254,"lo1":-89.0895,"lo2":-89.0444,"dy":0.0017,"dx":0.0017,"nx":28,"ny":28,"refTime":"2023-09-15T03:00:00:Z","depth":0,"parameterNumber":2,"parameterNumberName":"U-component_of_WINDS"},"data":[0,0,0,0,0,0,0,0,0,0,0,0,0,0,0,0,0,0,0,0,0,0,0,0,0,0,0,0,0,0,0,0,0,0,0,0,0,0,0,0,0,0,0,0,0,0,0,0,0,0,0,0,0,0,0,0,0,0,1.4258,1.4259,0,1.4331,1.4332,1.4333,1.4339,1.4339,1.4338,1.4337,1.4411,1.4413,1.4416,0,0,0,0,0,0,0,0,0,0,0,0,0,1.4123,1.4125,1.4258,1.4259,1.426,1.4331,1.4332,1.4333,1.434,1.4339,1.4338,1.4337,1.441,1.4413,1.4416,0,0,0,0,0,0,0,0,0,0,0,0,0,1.4187,1.4126,1.4258,1.4272,1.4274,1.4331,1.4332,1.4333,1.434,1.4339,1.4338,1.4336,1.4409,1.4412,1.4416,1.4464,0,0,1.4429,1.443,0,0,0,0,0,0,0,0,1.4184,1.4192,1.4269,1.4271,1.4274,1.4325,1.4311,1.4377,1.434,1.4315,1.4337,1.4336,1.4383,1.4389,1.4405,1.4467,1.447,1.4429,1.4431,1.4433,1.4434,0,0,0,0,0,0,0,1.4179,1.4189,1.4287,1.427,1.4273,1.4274,1.4282,1.4324,1.4354,1.4317,1.4318,1.4326,1.4384,1.4401,1.4407,1.4472,1.4429,1.4432,1.4435,1.4436,1.4574,1.4575,0,0,0,0,0,0,1.4172,1.4185,1.4285,1.4289,1.4225,1.4277,1.4286,1.431,1.4354,1.436,1.4327,1.4326,1.4395,1.4402,1.4409,1.4466,1.4433,1.4437,1.4439,1.4573,1.4574,1.4575,0,0,0,0,0,0,1.4169,1.4181,1.4282,1.4237,1.425,1.4281,1.4307,1.4312,1.4329,1.4362,1.4367,1.4339,1.4394,1.4404,1.445,1.4469,1.4439,1.4442,1.4571,1.4573,1.4575,1.4581,0,0,0,0,0,0,1.4165,1.418,1.4199,1.4238,1.4253,1.4322,1.4308,1.4314,1.4336,1.4336,1.4374,1.438,1.4394,1.4444,1.4454,1.4474,1.4445,1.457,1.4572,1.4574,1.4579,1.4583,1.4586,0,0,0,0,0,1.4161,1.4198,1.42,1.4212,1.4277,1.4323,1.4331,1.4347,1.4338,1.4356,1.4377,1.4378,1.4465,1.4448,1.446,1.4481,1.4568,1.4571,1.4574,1.4577,1.4582,1.4586,0,0,0,0,0,0,1.4161,1.4203,1.4206,1.4257,1.4286,1.4324,1.4348,1.4352,1.4384,1.4382,1.4401,1.4409,1.4454,1.4473,1.4453,1.4528,1.4516,1.4521,1.4514,1.4519,1.4522,1.4516,1.4449,0,0,0,0,0,1.4167,1.4201,1.4236,1.4278,1.4292,1.4318,1.4338,1.4348,1.4379,1.4391,1.4415,1.4444,1.4478,1.45,1.4533,1.4582,1.4589,1.4602,1.4605,1.4608,1.4612,1.4637,1.4643,1.4585,1.4585,1.4585,0,0,1.4179,1.4207,1.4227,1.4279,1.4302,1.4336,1.4328,1.4365,1.4389,1.4396,1.4441,1.4459,1.4493,1.454,1.4562,1.4557,1.463,1.4612,1.4614,1.4616,1.4641,1.4646,1.4651,1.4587,1.4586,1.4586,0,0,1.4219,1.4244,1.4281,1.4305,1.434,1.4357,1.4365,1.4402,1.4415,1.446,1.4465,1.4495,1.4553,1.4576,1.4595,1.4642,1.4644,1.4653,1.467,1.4694,1.4699,1.4703,1.4718,1.4723,1.4657,1.4657,1.4657,0,1.423,1.4282,1.4299,1.4335,1.4357,1.4365,1.4401,1.4423,1.4467,1.4482,1.4475,1.4547,1.457,1.4622,1.4633,1.4649,1.4659,1.4648,1.4697,1.4701,1.4705,1.4719,1.4725,1.4657,1.4657,1.4657,1.4657,0,1.4293,1.4328,1.4354,1.4396,1.4421,1.4457,1.4478,1.4501,1.4508,1.4525,1.4569,1.4598,1.4635,1.4649,1.4657,1.4701,1.4696,1.4693,1.4681,1.4711,1.4725,1.473,1.4658,1.4658,1.4658,1.4658,0,0,1.4335,1.4386,1.4394,1.4413,1.4452,1.448,1.4515,1.4552,1.457,1.4601,1.463,1.4678,1.4675,1.4697,1.4707,1.4729,1.4762,1.4723,1.4724,1.4728,1.481,1.4811,1.4817,1.4764,1.4765,1.4766,1.4807,0,1.4378,1.4442,1.4458,1.4512,1.4544,1.4551,1.4582,1.4609,1.4625,1.4654,1.4672,1.4705,1.4699,1.4712,1.4734,1.4753,1.4778,1.4751,1.479,1.4791,1.478,1.4825,1.4827,1.4864,1.4812,1.4813,1.4814,0,1.4436,1.4467,1.4525,1.4558,1.4572,1.46,1.4634,1.4662,1.4692,1.4702,1.4726,1.4734,1.477,1.4756,1.4805,1.4786,1.4803,1.4814,1.4816,1.4819,1.4803,1.4828,1.4876,1.4881,1.4823,1.4822,1.4822,0,1.4459,1.4515,1.4556,1.4572,1.4613,1.4631,1.4649,1.4678,1.4699,1.4729,1.4742,1.4775,1.4793,1.4819,1.4835,1.4824,1.4882,1.487,1.489,1.4889,1.4901,1.49,1.4951,1.4914,1.4914,1.4914,1.4914,0,1.4504,1.4538,1.4566,1.4591,1.4629,1.4647,1.4684,1.4702,1.4727,1.4755,1.4764,1.4789,1.481,1.4838,1.4851,1.4888,1.4897,1.4905,1.4908,1.4903,1.4902,1.4914,1.4911,1.4916,1.4915,1.4915,1.4915,0,1.4535,1.4556,1.46,1.4635,1.4645,1.4671,1.47,1.4724,1.474,1.4775,1.4784,1.4809,1.4843,1.4862,1.4904,1.4913,1.4953,1.4956,1.4943,1.4944,1.4962,1.496,1.5022,1.503,1.4989,1.4989,1.499,0,1.4562,1.4589,1.4626,1.4645,1.4663,1.4694,1.4715,1.4733,1.4754,1.4789,1.4809,1.4843,1.487,1.4923,1.4945,1.4977,1.4979,1.4998,1.4984,1.4978,1.4977,1.4975,1.4976,1.5,1.5001,1.5001,1.5001,0,1.4607,1.4615,1.4646,1.4679,1.4703,1.473,1.4757,1.4772,1.4794,1.4817,1.4851,1.4873,1.4916,1.4949,1.4982,1.4999,1.5003,1.5006,1.5012,1.5007,1.4998,1.5001,1.4948,1.5004,1.5004,1.5004,1.5004,1.5003,1.4636,1.4659,1.4688,1.4721,1.4743,1.4767,1.4791,1.481,1.4839,1.4875,1.4883,1.4919,1.4946,1.4992,1.501,1.5037,1.5033,1.5042,1.5044,1.5046,1.5046,1.4995,1.5043,1.5043,1.5043,1.5043,1.5043,0,1.4679,1.4699,1.4728,1.4765,1.479,1.4793,1.4822,1.4843,1.4874,1.49,1.4927,1.4965,1.4997,1.502,1.5052,1.507,1.5072,1.5077,1.5075,1.5079,1.5048,1.5039,1.5074,1.5074,1.5074,1.5074,1.5074,1.5074,1.4705,1.4744,1.4755,1.4804,1.4823,1.4858,1.4874,1.4896,1.4916,1.4959,1.4985,1.5,1.5025,1.5059,1.5087,1.5093,1.5104,1.5108,1.5114,1.5085,1.5081,1.5078,1.5069,1.5111,1.5111,1.5143,1.5143,1.5143]},{"header":{"parameterUnit":"m.s-1","parameterCategory":1,"la1":30.2991,"la2":30.254,"lo1":-89.0895,"lo2":-89.0444,"dy":0.0017,"dx":0.0017,"nx":28,"ny":28,"refTime":"2023-09-15T03:00:00:Z","depth":0,"parameterNumber":3,"parameterNumberName":"V-component_of_WINDS"},"data":[0,0,0,0,0,0,0,0,0,0,0,0,0,0,0,0,0,0,0,0,0,0,0,0,0,0,0,0,0,0,0,0,0,0,0,0,0,0,0,0,0,0,0,0,0,0,0,0,0,0,0,0,0,0,0,0,0,0,4.264,4.2639,0,4.253,4.2529,4.2527,4.2437,4.2436,4.2435,4.2434,4.2313,4.2311,4.2308,0,0,0,0,0,0,0,0,0,0,0,0,0,4.2766,4.2764,4.2641,4.2639,4.2638,4.253,4.2528,4.2527,4.2437,4.2436,4.2434,4.2433,4.2314,4.2311,4.2308,0,0,0,0,0,0,0,0,0,0,0,0,0,4.2689,4.2764,4.2641,4.258,4.2573,4.253,4.2528,4.2527,4.2437,4.2436,4.2434,4.2433,4.2315,4.2311,4.2308,4.2314,0,0,4.2297,4.2296,0,0,0,0,0,0,0,0,4.2694,4.2685,4.259,4.2584,4.2577,4.2496,4.2528,4.2455,4.2437,4.2489,4.2434,4.2432,4.2374,4.2366,4.2348,4.2308,4.2303,4.2297,4.2295,4.2293,4.2292,0,0,0,0,0,0,0,4.2699,4.2689,4.2596,4.2589,4.2581,4.2556,4.2543,4.2514,4.244,4.2484,4.2477,4.2466,4.237,4.2352,4.2345,4.2301,4.2297,4.2294,4.2292,4.229,4.2258,4.2259,0,0,0,0,0,0,4.2715,4.2694,4.26,4.2593,4.2633,4.2555,4.2541,4.2523,4.2441,4.2427,4.2467,4.2462,4.2358,4.2349,4.234,4.234,4.2293,4.229,4.2288,4.2257,4.2258,4.226,0,0,0,0,0,0,4.2718,4.2707,4.2604,4.2642,4.2627,4.2554,4.2535,4.2522,4.2503,4.2428,4.2413,4.2462,4.2357,4.2345,4.2321,4.2334,4.2288,4.2285,4.2255,4.2257,4.2259,4.2341,0,0,0,0,0,0,4.2722,4.2709,4.2713,4.2643,4.2625,4.259,4.2536,4.252,4.2498,4.249,4.2419,4.2406,4.2355,4.2327,4.2318,4.2329,4.2282,4.2254,4.2256,4.2258,4.2337,4.2346,4.2353,0,0,0,0,0,4.2727,4.2739,4.2713,4.2702,4.2628,4.2591,4.2581,4.2524,4.2499,4.2501,4.2452,4.2408,4.2335,4.2325,4.2314,4.2324,4.2253,4.2255,4.2258,4.2333,4.2344,4.2353,0,0,0,0,0,0,4.281,4.2729,4.2699,4.269,4.2649,4.2576,4.2576,4.2537,4.25,4.2494,4.2423,4.2407,4.2391,4.2355,4.2346,4.2324,4.2288,4.2288,4.2349,4.2358,4.2366,4.2374,4.2279,0,0,0,0,0,4.2828,4.2807,4.2736,4.2734,4.2715,4.265,4.2631,4.2591,4.2544,4.2526,4.2476,4.243,4.2396,4.2375,4.234,4.2332,4.2313,4.2333,4.2341,4.2348,4.2349,4.2339,4.2346,4.2269,4.2269,4.2269,0,0,4.2864,4.2816,4.2807,4.275,4.2713,4.269,4.2635,4.2614,4.2596,4.2521,4.2496,4.2458,4.2402,4.2385,4.2375,4.2355,4.2366,4.2352,4.2358,4.2355,4.2343,4.235,4.2357,4.2271,4.2271,4.227,0,0,4.2917,4.288,4.2874,4.2838,4.2784,4.274,4.2739,4.2672,4.2645,4.2619,4.2562,4.2538,4.2482,4.2444,4.2417,4.2455,4.2412,4.2445,4.2487,4.2478,4.2484,4.2489,4.2501,4.2506,4.2447,4.2447,4.2447,0,4.2967,4.2933,4.2875,4.2857,4.2832,4.2767,4.2758,4.2725,4.2662,4.2645,4.2624,4.2551,4.2509,4.2481,4.2491,4.2472,4.2466,4.2452,4.2489,4.2493,4.2497,4.2507,4.2512,4.2451,4.2451,4.245,4.245,0,4.2997,4.2974,4.2975,4.2917,4.2892,4.288,4.2817,4.2798,4.276,4.2718,4.2691,4.2638,4.259,4.2581,4.2542,4.2547,4.2536,4.2503,4.2464,4.251,4.2518,4.2521,4.2457,4.2456,4.2454,4.2453,0,0,4.3099,4.3009,4.301,4.2983,4.2918,4.2897,4.288,4.2836,4.282,4.2778,4.276,4.2714,4.2683,4.2653,4.2609,4.2602,4.2633,4.2569,4.2567,4.2581,4.2632,4.2656,4.2662,4.2605,4.2605,4.2605,4.2636,0,4.314,4.3108,4.3055,4.3039,4.3015,4.2952,4.2937,4.2894,4.2853,4.2825,4.2779,4.2748,4.271,4.2691,4.2681,4.2631,4.2642,4.2629,4.2584,4.2583,4.2599,4.2666,4.2692,4.2723,4.2639,4.2639,4.264,0,4.3184,4.3147,4.313,4.3066,4.3054,4.3041,4.2995,4.297,4.2919,4.289,4.2857,4.281,4.2785,4.2751,4.2714,4.2707,4.2685,4.2657,4.2657,4.2649,4.2613,4.2658,4.2732,4.2736,4.2644,4.2644,4.2644,0,4.3258,4.3204,4.3186,4.3165,4.309,4.3082,4.305,4.2997,4.2974,4.2933,4.2916,4.2872,4.2847,4.2813,4.2754,4.2735,4.2723,4.2685,4.2695,4.2697,4.2694,4.2695,4.2764,4.2684,4.2684,4.2684,4.2683,0,4.3308,4.33,4.3219,4.3208,4.3195,4.3133,4.3121,4.3082,4.3036,4.3014,4.2956,4.2936,4.2861,4.2831,4.2785,4.276,4.275,4.2723,4.2711,4.2728,4.2731,4.2711,4.2707,4.2685,4.2684,4.2684,4.2684,0,4.3389,4.3334,4.331,4.3242,4.3224,4.3218,4.3157,4.3142,4.3099,4.3072,4.3062,4.2992,4.2954,4.2893,4.2836,4.2805,4.2787,4.2768,4.2806,4.2798,4.2811,4.281,4.2869,4.2872,4.2792,4.2793,4.2794,0,4.3424,4.3416,4.3347,4.3329,4.33,4.3272,4.3248,4.3186,4.3162,4.3103,4.3094,4.3053,4.3016,4.2957,4.29,4.2855,4.2833,4.2856,4.2825,4.2842,4.2831,4.2831,4.2829,4.2863,4.2864,4.2865,4.2866,0,4.3492,4.3465,4.3434,4.3393,4.3367,4.3331,4.3292,4.328,4.3208,4.3184,4.3146,4.3118,4.306,4.3018,4.2966,4.2929,4.2885,4.2877,4.2876,4.2893,4.2914,4.2901,4.2823,4.2875,4.2874,4.2873,4.2873,4.2873,4.3549,4.3538,4.3488,4.3455,4.3419,4.3384,4.3367,4.3321,4.3289,4.324,4.3204,4.3168,4.3114,4.3039,4.3005,4.2973,4.2954,4.2954,4.2954,4.2954,4.296,4.2921,4.2964,4.2963,4.2963,4.2963,4.2962,0,4.3612,4.3577,4.3547,4.3495,4.3468,4.3432,4.3386,4.3365,4.3335,4.329,4.3255,4.321,4.3169,4.3109,4.3062,4.3048,4.3026,4.3037,4.3037,4.3029,4.2981,4.2985,4.3056,4.3056,4.3056,4.3056,4.3056,4.3056,4.3642,4.3621,4.3589,4.3549,4.3513,4.3479,4.3456,4.3422,4.3386,4.3339,4.3305,4.3267,4.3215,4.3164,4.3123,4.3106,4.3091,4.3108,4.3085,4.3041,4.3032,4.3024,4.3027,4.3106,4.3106,4.3135,4.3135,4.3135]}]]